Date String (YYYY-MM-DD hh:mm:ss) UTC,Instrument flags,absolute air pressure of the measurement (hPa),sample flow rate (lpm),inlet stack bypass flow (lpm),air temperature of the measurement (°C),ambient temperature measured by the external sensor (°C),aerosol sample conditioner tube jacket temperature (°C),OPC LED temperature (°C),internal box temperature (°C),relative humidity of the measurement (%),span deviation,mass concentration of particles derived from Lorenz-Mie calculation of OPC scattering (μg/m³),mass concentration of particles derived from Lorenz-Mie calculation of OPC scattering (μg/m³),mass concentration of particles derived from Lorenz-Mie calculation of OPC scattering (μg/m³)
DateTimeUTC,F1_M11,P_M11,Q1_M11,Q2_M11,T1_M11,T2_M11,T3_M11,T4_M11,T5_M11,U1_M11,ZSPAN_M11,X2_M11,X0_M11,X1_M11
2024-02-19 22:00:00,SystemResetWarning,0827.0,4.99,000.00,023.0,022.4,000.0,031.4,024.8,11.4,0000.0,0002.69,0007.44,0002.22
2024-02-19 22:01:00,SystemResetWarning,0827.0,4.99,000.00,023.0,022.4,000.0,031.4,024.8,11.7,0000.0,0002.74,0007.14,0002.23
2024-02-19 22:02:00,SystemResetWarning,0826.9,5.00,000.00,023.0,022.5,000.0,031.4,024.8,11.9,0000.0,0002.81,0007.61,0002.23
2024-02-19 22:03:00,SystemResetWarning,0826.9,5.01,000.00,023.0,022.5,000.0,031.4,024.8,11.8,0000.0,0002.85,0007.42,0002.25
2024-02-19 22:04:00,SystemResetWarning,0826.9,5.01,000.00,023.0,022.5,000.0,031.4,024.9,11.3,0000.0,0002.83,0007.35,0002.27
2024-02-19 22:05:00,SystemResetWarning,0826.9,5.00,000.00,023.0,022.5,000.0,031.4,024.9,11.7,0000.0,0002.82,0006.89,0002.29
2024-02-19 22:06:00,SystemResetWarning,0826.9,5.00,000.00,023.0,022.5,000.0,031.4,024.9,11.8,0000.0,0002.78,0005.93,0002.29
2024-02-19 22:07:00,SystemResetWarning,0827.0,4.99,000.00,023.1,022.5,000.0,031.4,024.9,11.8,0000.0,0002.85,0007.13,0002.30
2024-02-19 22:08:00,SystemResetWarning,0826.9,5.00,000.00,023.1,022.5,000.0,031.4,024.9,11.1,0000.0,0002.93,0007.32,0002.32
2024-02-19 22:09:00,SystemResetWarning,0827.0,5.00,000.00,023.1,022.6,000.0,031.4,024.9,11.2,0000.0,0002.95,0007.42,0002.33
2024-02-19 22:10:00,SystemResetWarning,0827.0,5.00,000.00,023.1,022.6,000.0,031.4,024.9,11.1,0000.0,0003.01,0007.50,0002.33
2024-02-19 22:11:00,SystemResetWarning,0827.0,5.00,000.00,023.1,022.6,000.0,031.4,024.9,10.9,0000.0,0003.02,0007.47,0002.32
2024-02-19 22:12:00,SystemResetWarning,0827.0,5.01,000.00,023.1,022.6,000.0,031.4,024.9,11.4,0000.0,0003.02,0007.40,0002.32
2024-02-19 22:13:00,SystemResetWarning,0827.0,5.01,000.00,023.1,022.6,000.0,031.5,024.9,12.0,0000.0,0002.97,0006.63,0002.32
2024-02-19 22:14:00,SystemResetWarning,0827.1,5.00,000.00,023.1,022.6,000.0,031.5,024.9,12.1,0000.0,0002.91,0006.28,0002.31
2024-02-19 22:15:00,SystemResetWarning,0827.1,5.00,000.00,023.1,022.6,000.0,031.5,025.0,11.9,0000.0,0002.90,0007.39,0002.28
2024-02-19 22:16:00,SystemResetWarning,0827.1,5.00,000.00,023.1,022.6,000.0,031.5,025.0,12.0,0000.0,0002.90,0007.86,0002.26
2024-02-19 22:17:00,SystemResetWarning,0827.1,4.99,000.00,023.2,022.6,000.0,031.5,025.0,12.1,0000.0,0002.86,0008.01,0002.26
2024-02-19 22:18:00,SystemResetWarning,0827.1,5.00,000.00,023.2,022.7,000.0,031.5,025.0,11.1,0000.0,0002.80,0007.93,0002.23
2024-02-19 22:19:00,SystemResetWarning,0827.1,5.00,000.00,023.2,022.7,000.0,031.5,025.0,11.3,0000.0,0002.72,0007.91,0002.21
2024-02-19 22:20:00,SystemResetWarning,0827.0,5.00,000.00,023.2,022.7,000.0,031.5,025.0,11.6,0000.0,0002.72,0007.94,0002.19
2024-02-19 22:21:00,SystemResetWarning,0827.0,5.00,000.00,023.2,022.7,000.0,031.5,025.0,11.5,0000.0,0002.65,0008.53,0002.17
2024-02-19 22:22:00,SystemResetWarning,0826.9,4.99,000.00,023.2,022.7,000.0,031.5,025.0,11.7,0000.0,0002.63,0008.89,0002.16
2024-02-19 22:23:00,SystemResetWarning,0826.9,5.00,000.00,023.2,022.7,000.0,031.5,025.0,11.8,0000.0,0002.58,0008.86,0002.14
2024-02-19 22:24:00,SystemResetWarning,0826.9,5.00,000.00,023.2,022.7,000.0,031.5,025.0,11.9,0000.0,0002.53,0008.84,0002.11
2024-02-19 22:25:00,SystemResetWarning,0826.9,4.99,000.00,023.2,022.7,000.0,031.6,025.0,11.7,0000.0,0002.53,0008.86,0002.11
2024-02-19 22:26:00,SystemResetWarning,0826.9,5.00,000.00,023.2,022.7,000.0,031.6,025.0,11.9,0000.0,0002.51,0008.66,0002.10
2024-02-19 22:27:00,SystemResetWarning,0826.9,5.00,000.00,023.3,022.7,000.0,031.6,025.1,11.7,0000.0,0002.51,0008.91,0002.12
2024-02-19 22:28:00,SystemResetWarning,0826.9,5.00,000.00,023.3,022.8,000.0,031.6,025.0,11.6,0000.0,0002.56,0008.70,0002.13
2024-02-19 22:29:00,SystemResetWarning,0826.9,5.00,000.00,023.3,022.7,000.0,031.6,025.0,11.7,0000.0,0002.60,0008.14,0002.13
2024-02-19 22:30:00,SystemResetWarning,0826.8,5.01,000.00,023.3,022.8,000.0,031.6,025.0,11.3,0000.0,0002.64,0008.24,0002.11
2024-02-19 22:31:00,SystemResetWarning,0826.8,5.01,000.00,023.3,022.8,000.0,031.6,025.1,11.0,0000.0,0002.62,0008.34,0002.09
2024-02-19 22:32:00,SystemResetWarning,0826.8,5.01,000.00,023.3,022.8,000.0,031.6,025.1,11.2,0000.0,0002.64,0007.90,0002.07
2024-02-19 22:33:00,SystemResetWarning,0826.8,5.00,000.00,023.3,022.8,000.0,031.6,025.1,11.2,0000.0,0002.66,0008.32,0002.07
2024-02-19 22:34:00,SystemResetWarning,0826.8,5.00,000.00,023.3,022.8,000.0,031.6,025.1,11.5,0000.0,0002.69,0008.45,0002.06
2024-02-19 22:35:00,SystemResetWarning,0826.9,5.00,000.00,023.3,022.8,000.0,031.6,025.1,11.8,0000.0,0002.69,0008.45,0002.04
2024-02-19 22:36:00,SystemResetWarning,0826.9,4.99,000.00,023.3,022.8,000.0,031.6,025.1,11.7,0000.0,0002.71,0008.65,0002.02
2024-02-19 22:37:00,SystemResetWarning,0826.9,5.00,000.00,023.3,022.8,000.0,031.6,025.1,11.5,0000.0,0002.72,0008.37,0002.02
2024-02-19 22:38:00,SystemResetWarning,0827.0,5.00,000.00,023.3,022.8,000.0,031.7,025.1,11.5,0000.0,0002.73,0007.82,0001.98
2024-02-19 22:39:00,SystemResetWarning,0826.9,5.00,000.00,023.3,022.8,000.0,031.7,025.1,11.6,0000.0,0002.68,0008.51,0001.95
2024-02-19 22:40:00,SystemResetWarning,0826.9,5.01,000.00,023.3,022.8,000.0,031.7,025.1,11.9,0000.0,0002.59,0008.96,0001.91
2024-02-19 22:41:00,SystemResetWarning,0826.9,5.01,000.00,023.3,022.8,000.0,031.7,025.1,12.0,0000.0,0002.53,0008.95,0001.88
2024-02-19 22:42:00,SystemResetWarning,0827.0,4.99,000.00,023.3,022.8,000.0,031.7,025.1,11.7,0000.0,0002.47,0009.28,0001.85
2024-02-19 22:43:00,SystemResetWarning,0827.0,5.00,000.00,023.4,022.8,000.0,031.7,025.1,11.6,0000.0,0002.44,0009.91,0001.83
2024-02-19 22:44:00,SystemResetWarning,0827.1,5.00,000.00,023.4,022.8,000.0,031.7,025.1,11.5,0000.0,0002.43,0010.99,0001.81
2024-02-19 22:45:00,SystemResetWarning,0827.1,5.00,000.00,023.4,022.8,000.0,031.7,025.1,11.5,0000.0,0002.40,0011.06,0001.79
2024-02-19 22:46:00,SystemResetWarning,0827.1,5.00,000.00,023.4,022.9,000.0,031.7,025.2,11.4,0000.0,0002.38,0011.08,0001.76
2024-02-19 22:47:00,SystemResetWarning,0827.1,5.00,000.00,023.4,022.9,000.0,031.7,025.2,11.7,0000.0,0002.34,0011.16,0001.74
2024-02-19 22:48:00,SystemResetWarning,0827.1,5.00,000.00,023.4,022.9,000.0,031.7,025.2,11.7,0000.0,0002.33,0011.79,0001.73
2024-02-19 22:49:00,SystemResetWarning,0827.0,5.00,000.00,023.4,022.9,000.0,031.7,025.2,11.5,0000.0,0002.36,0011.93,0001.72
2024-02-19 22:50:00,SystemResetWarning,0827.0,5.00,000.00,023.4,022.9,000.0,031.7,025.2,10.8,0000.0,0002.34,0011.27,0001.71
2024-02-19 22:51:00,SystemResetWarning,0827.0,5.00,000.00,023.4,022.9,000.0,031.7,025.2,10.7,0000.0,0002.41,0011.23,0001.71
2024-02-19 22:52:00,SystemResetWarning,0827.0,5.00,000.00,023.4,022.9,000.0,031.8,025.2,11.0,0000.0,0002.43,0011.15,0001.72
2024-02-19 22:53:00,SystemResetWarning,0827.0,5.01,000.00,023.4,022.9,000.0,031.8,025.2,11.3,0000.0,0002.47,0010.89,0001.73
2024-02-19 22:54:00,SystemResetWarning,0826.9,5.01,000.00,023.4,022.9,000.0,031.8,025.2,11.4,0000.0,0002.47,0011.28,0001.72
2024-02-19 22:55:00,SystemResetWarning,0826.9,5.00,000.00,023.4,022.9,000.0,031.8,025.2,11.1,0000.0,0002.44,0009.43,0001.72
2024-02-19 22:56:00,SystemResetWarning,0826.9,4.99,000.00,023.4,022.9,000.0,031.8,025.2,11.2,0000.0,0002.45,0009.01,0001.72
2024-02-19 22:57:00,SystemResetWarning,0826.9,4.99,000.00,023.5,023.0,000.0,031.8,025.2,10.6,0000.0,0002.45,0009.09,0001.73
2024-02-19 22:58:00,SystemResetWarning,0826.9,4.99,000.00,023.5,023.0,000.0,031.8,025.2,10.6,0000.0,0002.45,0008.86,0001.73
2024-02-19 22:59:00,SystemResetWarning,0826.9,5.00,000.00,023.5,023.0,000.0,031.8,025.3,10.5,0000.0,0002.46,0008.22,0001.71
